Date,TemperatureHighF,TemperatureAvgF,TemperatureLowF,DewpointHighF,DewpointAvgF,DewpointLowF,HumidityHigh,HumidityAvg,HumidityLow,PressureMaxIn,PressureMinIn,WindSpeedMaxMPH,WindSpeedAvgMPH,GustSpeedMaxMPH,PrecipitationSumIn
2013-9-9,71.2,68.3,67.5,67.1,66.8,66.3,96,95,86,29.73,29.47,3,2,3,0.00
2013-9-10,91.2,83.4,63.0,64.6,48.8,44.6,99,33,21,29.43,29.17,19,5,19,0.00
2013-9-11,86.2,72.9,56.1,56.7,39.4,28.8,76,34,13,29.51,29.32,14,3,14,0.00
2013-9-12,82.8,65.2,53.2,55.9,44.9,39.6,85,51,22,29.58,29.41,11,2,11,0.00
2013-9-13,74.1,61.5,51.3,55.5,51.1,47.2,88,70,49,29.73,29.61,8,3,11,0.00
2013-9-14,84.0,67.2,56.7,63.6,59.4,53.6,99,79,45,29.54,29.33,14,4,14,0.20
2013-9-15,76.6,63.9,53.4,61.7,56.9,53.0,99,80,55,29.67,29.54,9,2,9,0.00
2013-9-16,67.6,61.1,53.8,62.2,59.7,53.0,99,95,77,29.58,29.28,12,3,12,0.38
2013-9-17,76.5,64.9,55.8,64.2,59.5,53.8,99,84,57,29.20,29.10,14,3,14,0.22
2013-9-18,79.7,68.5,57.7,58.8,53.6,46.0,96,62,33,29.23,29.13,21,6,21,0.00
2013-9-19,81.3,68.4,56.7,50.5,44.8,38.7,73,46,24,29.36,29.18,14,4,14,0.00
2013-9-20,77.5,64.7,53.1,45.2,40.2,28.7,68,44,19,29.46,29.26,18,7,18,0.00
2013-9-21,79.5,64.3,49.6,51.7,47.9,42.6,82,58,31,29.52,29.45,8,2,8,0.00
2013-9-22,86.4,68.6,49.6,59.6,53.7,43.8,99,65,24,29.57,29.44,8,2,8,0.01
2013-9-23,95.2,83.0,58.8,63.2,48.1,27.3,93,37,10,29.51,29.28,12,4,12,0.01
2013-9-24,93.6,72.4,61.9,57.1,47.4,34.1,60,43,13,29.37,29.11,11,2,11,0.00
2013-9-25,97.3,79.2,61.0,60.1,50.2,39.8,61,39,14,29.42,29.29,8,2,8,0.00
2013-9-26,97.3,78.0,57.0,55.4,45.5,21.1,84,40,10,29.51,29.18,32,5,32,0.02
2013-9-27,85.3,64.2,52.9,49.5,36.3,24.8,61,38,12,29.72,29.57,10,2,10,0.00
2013-9-28,91.2,71.9,50.0,55.0,37.5,17.6,99,43,10,29.53,29.27,19,4,19,0.00
2013-9-29,84.2,69.2,55.8,58.3,47.9,35.9,92,51,19,29.63,29.49,10,2,10,0.00
2013-9-30,95.5,64.2,49.8,56.1,50.6,27.8,99,72,10,29.63,29.42,11,2,11,0.00